PRISMA (TANGO)

Satellite information

Favourite Embed

Satellite Type and Status

PAYLOADIN ORBIT

Key statistics

Satellite PRISMA (TANGO) at a glance.

Uptime

5443

Days in orbit

Revolutions

≈ 14.4

Per day

Orbit

SSO

Sun Synchronous Orbit

Inclination

98.5

Latest

Satellite identification and parameters

Extended collection of information and parameters for PRISMA (TANGO).

Object identification

Identified? True

Debris? False

Object name: PRISMA (TANGO)

International designator: 2010-028F

Object number (NORAD): 36827

Object ID (CCSDS): 36827

Country: SWEDEN (SWED)

Current information (Y/N): Y

RCS size: MEDIUM

Orbital parameters

Period: 99.694 minutes

Inclination: 98.4737 deg

SMA: 7122.081 km

Apoapsis: 773.668 km

Periapsis: 714.224 km

RAAN: 337.6305 deg

Eccentricy: 0.0041732

Argument of periapsis: 13.0312 deg

Mean anomaly: 347.1947 deg

Mean motion: 14.44416465 rev/day

Mean motion (dot): 0.00000444 rev/day2

B* drag term: 0.00014044 1/REarth

Two-line elements (TLE)

Creation date: May 10, 2025, 2:32 a.m.

Reference frame: TEME

Reference center: EARTH

Epoch: May 9, 2025, 1:03 p.m. UTC

TLE line 0: 0 PRISMA (TANGO)

TLE line 1: 1 36827U 10028F 25129.54437373 .00000444 00000-0 14044-3 0 9990

TLE line 2: 2 36827 98.4737 337.6305 0041732 13.0312 347.1947 14.44416465644615

Live tracking on map

Real-time ground track for satellite PRISMA (TANGO).

In-orbit conjunctions

There are no conjunctions computed for PRISMA (TANGO), at the moment. Check back to stay up to date, as we update our databases every day.

Go to all conjunctions

Associated space launch

PRISMA (TANGO) was lifted into orbit during the mission ‘Dnepr 1 | Prisma-Mango, Prisma-Tango, Picard, BPA-1’, on board a Dnepr space rocket.

The launch took place on June 15, 2010, 2:42 p.m. from 370/13.

For more information about the launch, click the button.

Launch to space Dnepr 1 | Prisma-Mango, Prisma-Tango, Picard, BPA-1
Dnepr 1 | Prisma-Mango, Prisma-Tango, Picard, BPA-1

Agency: N/A

Status: Launch Successful

Launch date: June 15, 2010, 2:42 p.m. UTC

Rocket: Dnepr

Launch pad: 370/13

Location: Dombarovskiy, Russian Federation

...

Latest news about this satellite

There are no fresh news available about this satellite. Check back as we update our databases every day.


Newsletter sign-up

Weekly statistics, charts and insights to help you stay on top of the space industry.